,

(GMT )
Al Udeid

Weather History for KQIR - August, 2013

Change the Weather History Date:

Sunday, August 4, 2013

  Actual Average Record
Temperature  
Mean Temperature 94 °F -  
Max Temperature 106 °F - - ()
Min Temperature 83 °F - - ()
Cooling Degree Days 30    
Growing Degree Days 44 (Base 50)    
Moisture  
Dew Point 70 °F    
Average Humidity 50    
Maximum Humidity 76    
Minimum Humidity 19    
Precipitation  
Precipitation 0.00 in - - ()
Sea Level Pressure  
Sea Level Pressure 29.44 in    
Wind  
Wind Speed 7 mph ()    
Max Wind Speed 22 mph    
Max Gust Speed -    
Visibility 6.2 miles    
Events      
Averages and records for this station are not official NWS values.
T = Trace of Precipitation, MM = Missing Value Source: Averaged Metar Reports

Daily Weather History Graph

Daily Weather History Graph

Search for Another Location

Airport or City:

Trip Planner

Search our weather history database for the weather conditions in past years. The results will help you decide how hot, cold, wet, or windy it might be!

Date:

Astronomy

Aug. 04, 2013 Rise Set
Actual Time 5:03 AM +03 6:17 PM +03
Civil Twilight 4:38 AM +03 6:42 PM +03
Nautical Twilight 4:09 AM +03 7:11 PM +03
Astronomical Twilight 3:39 AM +03 7:41 PM +03
Moon 2:46 AM +03 (8/4) 4:24 PM +03 (8/4)
Length of Visible Light 14h 03m
Length of Day
13h 14m
Waning Crescent, 6% of the Moon is Illuminated
Aug 4
Waning Crescent
Aug 7
New
Aug 14
First Quarter
Aug 21
Full
Aug 28
Last Quarter

Hourly Weather History & Observations

Time (+03) Temp. Heat Index Dew Point Humidity Pressure Visibility Wind Dir Wind Speed Gust Speed Precip Events Conditions
12:55 AM 86.5 °F - 52.3 °F 31% 29.44 in 6.2 mi West 8.1 mph - N/A   Clear
1:55 AM 86.0 °F 85.7 °F 59.5 °F 41% 29.43 in 6.2 mi West 6.9 mph - N/A   Partly Cloudy
2:55 AM 84.6 °F 86.6 °F 65.8 °F 53% 29.44 in 6.2 mi NW 3.5 mph - N/A   Clear
3:55 AM 84.7 °F 88.2 °F 68.7 °F 58% 29.44 in 6.2 mi NW 6.9 mph - N/A   Clear
4:55 AM 83.7 °F 87.2 °F 69.1 °F 61% 29.44 in 6.2 mi NW 4.6 mph - N/A   Clear
5:55 AM 83.5 °F 87.2 °F 69.4 °F 62% 29.44 in 5.6 mi NW 4.6 mph - N/A   Haze
6:55 AM 88.0 °F 92.5 °F 69.6 °F 54% 29.45 in 6.2 mi North 5.8 mph - N/A   Clear
7:55 AM 90.9 °F 95.3 °F 68.5 °F 48% 29.47 in 6.2 mi NNE 5.8 mph - N/A   Clear
8:55 AM 93.2 °F 98.8 °F 69.8 °F 46% 29.48 in 6.2 mi NE 4.6 mph - N/A   Clear
9:55 AM 99.0 °F - 51.1 °F 20% 29.47 in 6.2 mi NNE 6.9 mph - N/A   Clear
10:55 AM 102.4 °F - 52.9 °F 19% 29.46 in 6.2 mi NNE 6.9 mph - N/A   Partly Cloudy
11:55 AM 103.1 °F 107.9 °F 66.0 °F 30% 29.43 in 6.2 mi NE 8.1 mph - N/A   Partly Cloudy
12:55 PM 104.2 °F 107.7 °F 64.4 °F 27% 29.42 in 6.2 mi NE 9.2 mph - N/A   Clear
1:55 PM 106.7 °F 106.2 °F 55.9 °F 19% 29.40 in 6.2 mi NE 10.4 mph - N/A   Clear
2:55 PM 104.7 °F 112.8 °F 69.6 °F 32% 29.40 in 6.2 mi NE 12.7 mph - N/A   Clear
3:55 PM 99.9 °F 116.9 °F 77.4 °F 49% 29.40 in 6.2 mi East 21.9 mph - N/A   Clear
4:55 PM 97.9 °F 117.1 °F 79.2 °F 55% 29.41 in 6.2 mi ENE 13.8 mph - N/A   Clear
5:55 PM 94.3 °F 119.0 °F 82.8 °F 69% 29.43 in 6.2 mi East 16.1 mph - N/A   Clear
6:55 PM 92.5 °F 119.1 °F 83.8 °F 76% 29.45 in 6.2 mi ENE 10.4 mph - N/A   Clear
7:55 PM 92.1 °F 116.0 °F 82.9 °F 74% 29.47 in 6.2 mi East 9.2 mph - N/A   Clear
8:55 PM 91.9 °F 112.8 °F 81.1 °F 71% 29.49 in 6.2 mi East 4.6 mph - N/A   Clear
9:55 PM 91.6 °F 110.0 °F 80.1 °F 69% 29.49 in 6.2 mi East 6.9 mph - N/A   Clear
10:55 PM 91.4 °F 105.8 °F 77.9 °F 64% 29.47 in 6.2 mi East 4.6 mph - N/A   Clear
11:55 PM 91.0 °F 108.4 °F 79.5 °F 69% 29.46 in 6.2 mi ENE 6.9 mph - N/A   Clear